When you browse on this site, cookies collect data to enhance your experience and personalize the content and advertising you see.
Visit our Privacy Policy to learn more. By continuing to use the site, you agree to this use of cookies and data.
  • In Hungary
  • List of Countries
  • For 7 days
  • Water Temperature
  • Satellite Maps
  • Weather Map
  • News
  • Weather Widgets
  • user-avatar
    Login

    Hourly Weather Gelendzik

    Today, 18 January, Friday

    Time Temperature Precipitation Wind Pressure Humidity
    00:00 +1°C° 0 mm 3 mps 766 mmHg 68%
    01:00 +2°C° 0 mm 3 mps 766 mmHg 74%
    02:00 +3°C° 0 mm 3 mps 766 mmHg 80%
    03:00 +3°C° 0 mm 4 mps 766 mmHg 86%
    04:00 +4°C° 0 mm 4 mps 766 mmHg 86%
    05:00 +4°C° 0 mm 4 mps 766 mmHg 87%
    06:00 +4°C° 0 mm 4 mps 766 mmHg 87%
    07:00 +5°C° 0 mm 5 mps 766 mmHg 86%
    08:00 +5°C° 0 mm 5 mps 766 mmHg 86%
    09:00 +4°C° 0 mm 6 mps 767 mmHg 85%
    10:00 +4°C° 0 mm 6 mps 767 mmHg 84%
    11:00 +4°C° 0 mm 6 mps 767 mmHg 82%
    12:00 +4°C° 0 mm 6 mps 767 mmHg 81%
    13:00 +4°C° 0 mm 6 mps 767 mmHg 80%
    14:00 +4°C° 0 mm 6 mps 766 mmHg 80%
    15:00 +4°C° 0 mm 7 mps 766 mmHg 80%
    16:00 +4°C° 0 mm 7 mps 766 mmHg 81%
    17:00 +4°C° 0 mm 7 mps 766 mmHg 82%
    18:00 +3°C° 0 mm 7 mps 766 mmHg 83%
    19:00 +4°C° 0 mm 7 mps 766 mmHg 84%
    20:00 +4°C° 0 mm 7 mps 766 mmHg 85%
    21:00 +4°C° 0 mm 7 mps 766 mmHg 86%
    22:00 +4°C° 0 mm 7 mps 765 mmHg 87%
    23:00 +4°C° 0 mm 7 mps 765 mmHg 87%

    Tomorrow, 19 January, Saturday

    Time Temperature Precipitation Wind Pressure Humidity
    00:00 +4°C° 0 mm 7 mps 765 mmHg 87%
    01:00 +4°C° 0 mm 7 mps 765 mmHg 87%
    02:00 +4°C° 0 mm 7 mps 765 mmHg 87%
    03:00 +4°C° 0 mm 7 mps 765 mmHg 88%
    04:00 +4°C° 0 mm 7 mps 765 mmHg 88%
    05:00 +4°C° 0 mm 7 mps 764 mmHg 88%
    06:00 +4°C° 0 mm 7 mps 764 mmHg 88%
    07:00 +4°C° 0 mm 7 mps 764 mmHg 87%
    08:00 +5°C° 0 mm 7 mps 764 mmHg 87%
    09:00 +5°C° 0 mm 7 mps 764 mmHg 87%
    10:00 +5°C° 0 mm 8 mps 764 mmHg 85%
    11:00 +6°C° 0 mm 8 mps 765 mmHg 83%
    12:00 +6°C° 0 mm 8 mps 765 mmHg 81%
    13:00 +6°C° 0 mm 7 mps 764 mmHg 81%
    14:00 +6°C° 0 mm 7 mps 764 mmHg 81%
    15:00 +6°C° 0 mm 7 mps 764 mmHg 82%
    16:00 +7°C° 0 mm 6 mps 764 mmHg 83%
    17:00 +7°C° 0 mm 6 mps 764 mmHg 84%
    18:00 +5°C° 0 mm 6 mps 764 mmHg 86%
    19:00 +5°C° 0.9 mm 6 mps 765 mmHg 87%
    20:00 +6°C° 0.9 mm 5 mps 765 mmHg 89%
    21:00 +6°C° 0.9 mm 5 mps 765 mmHg 91%
    22:00 +6°C° 0.9 mm 4 mps 765 mmHg 92%
    23:00 +6°C° 0.9 mm 4 mps 766 mmHg 94%

    Day after tomorrow, 20 January, Sunday

    Time Temperature Precipitation Wind Pressure Humidity
    00:00 +7°C° 0.9 mm 3 mps 766 mmHg 96%
    01:00 +7°C° 0.2 mm 3 mps 766 mmHg 96%
    02:00 +7°C° 0.2 mm 2 mps 766 mmHg 96%
    03:00 +7°C° 0.2 mm 2 mps 766 mmHg 96%
    04:00 +6°C° 0.2 mm 2 mps 766 mmHg 96%
    05:00 +6°C° 0.2 mm 2 mps 766 mmHg 96%
    06:00 +6°C° 0.2 mm 2 mps 766 mmHg 96%
    07:00 +6°C° 0.3 mm 2 mps 767 mmHg 95%
    08:00 +6°C° 0.3 mm 2 mps 767 mmHg 95%
    09:00 +5°C° 0.3 mm 2 mps 767 mmHg 95%
    10:00 +6°C° 0.2 mm 2 mps 767 mmHg 95%
    11:00 +6°C° 0.2 mm 2 mps 767 mmHg 95%
    12:00 +6°C° 0.2 mm 2 mps 767 mmHg 95%
    13:00 +6°C° 0.1 mm 2 mps 767 mmHg 95%
    14:00 +6°C° 0.1 mm 2 mps 767 mmHg 94%
    15:00 +6°C° 0.1 mm 2 mps 766 mmHg 94%
    16:00 +6°C° 0 mm 2 mps 766 mmHg 94%
    17:00 +6°C° 0 mm 2 mps 766 mmHg 93%
    18:00 +7°C° 0 mm 2 mps 766 mmHg 93%
    19:00 +7°C° 0 mm 3 mps 766 mmHg 92%
    20:00 +7°C° 0 mm 3 mps 766 mmHg 90%
    21:00 +6°C° 0 mm 4 mps 766 mmHg 89%
    22:00 +6°C° 0 mm 4 mps 766 mmHg 88%
    23:00 +6°C° 0 mm 5 mps 766 mmHg 87%

    21 January, Monday

    Time Temperature Precipitation Wind Pressure Humidity
    00:00 +6°C° 0 mm 5 mps 765 mmHg 87%
    01:00 +5°C° 0 mm 5 mps 765 mmHg 87%
    02:00 +5°C° 0 mm 5 mps 765 mmHg 86%
    03:00 +4°C° 0 mm 6 mps 765 mmHg 86%
    04:00 +4°C° 0 mm 6 mps 764 mmHg 84%
    05:00 +4°C° 0 mm 6 mps 764 mmHg 82%
    06:00 +5°C° 0 mm 7 mps 763 mmHg 80%
    07:00 +5°C° 0 mm 7 mps 763 mmHg 79%
    08:00 +5°C° 0 mm 7 mps 763 mmHg 77%
    09:00 +5°C° 0 mm 7 mps 763 mmHg 76%
    10:00 +6°C° 0 mm 8 mps 763 mmHg 74%
    11:00 +6°C° 0 mm 8 mps 763 mmHg 71%
    12:00 +7°C° 0 mm 8 mps 763 mmHg 69%
    13:00 +7°C° 0 mm 8 mps 762 mmHg 70%
    14:00 +7°C° 0 mm 8 mps 762 mmHg 70%
    15:00 +7°C° 0 mm 8 mps 761 mmHg 71%
    16:00 +6°C° 0 mm 8 mps 761 mmHg 74%
    17:00 +6°C° 0 mm 8 mps 761 mmHg 78%
    18:00 +6°C° 0 mm 8 mps 761 mmHg 81%
    19:00 +6°C° 0.6 mm 8 mps 761 mmHg 83%
    20:00 +5°C° 0.6 mm 8 mps 761 mmHg 86%
    21:00 +5°C° 0.6 mm 8 mps 761 mmHg 89%
    22:00 +5°C° 3 mm 8 mps 761 mmHg 91%
    23:00 +5°C° 3 mm 8 mps 761 mmHg 94%

    22 January, Tuesday

    Time Temperature Precipitation Wind Pressure Humidity
    00:00 +4°C° 3 mm 7 mps 762 mmHg 97%
    01:00 +4°C° 0.1 mm 7 mps 763 mmHg 93%
    02:00 +3°C° 0.1 mm 7 mps 763 mmHg 90%
    03:00 +2°C° 0.1 mm 7 mps 764 mmHg 86%
    04:00 0°C° 0 mm 7 mps 765 mmHg 85%
    05:00 0°C° 0 mm 7 mps 765 mmHg 83%
    06:00 -1°C° 0 mm 7 mps 766 mmHg 81%
    07:00 -2°C° 0 mm 6 mps 766 mmHg 80%
    08:00 -3°C° 0 mm 6 mps 767 mmHg 79%
    09:00 -3°C° 0 mm 6 mps 768 mmHg 79%
    10:00 -3°C° 0 mm 6 mps 768 mmHg 73%
    11:00 -1°C° 0 mm 5 mps 768 mmHg 68%
    12:00 -1°C° 0 mm 5 mps 768 mmHg 63%
    13:00 0°C° 0 mm 5 mps 768 mmHg 61%
    14:00 0°C° 0 mm 4 mps 767 mmHg 59%
    15:00 0°C° 0 mm 4 mps 767 mmHg 56%
    16:00 -1°C° 0 mm 4 mps 767 mmHg 58%
    17:00 -1°C° 0 mm 4 mps 767 mmHg 59%
    18:00 -2°C° 0 mm 5 mps 767 mmHg 61%
    19:00 -2°C° 0 mm 5 mps 767 mmHg 60%
    20:00 -2°C° 0 mm 5 mps 767 mmHg 58%
    21:00 -2°C° 0 mm 5 mps 767 mmHg 57%
    22:00 -2°C° 0 mm 5 mps 767 mmHg 58%
    23:00 -2°C° 0 mm 4 mps 766 mmHg 59%

    23 January, Wednesday

    Time Temperature Precipitation Wind Pressure Humidity
    00:00 -2°C° 0 mm 4 mps 766 mmHg 60%
    01:00 -2°C° 0 mm 4 mps 766 mmHg 63%
    02:00 -2°C° 0 mm 4 mps 766 mmHg 65%
    03:00 -2°C° 0 mm 4 mps 765 mmHg 68%
    04:00 -2°C° 0 mm 4 mps 765 mmHg 70%
    05:00 -2°C° 0 mm 4 mps 765 mmHg 73%
    06:00 -2°C° 0 mm 4 mps 764 mmHg 75%
    07:00 -2°C° 0 mm 4 mps 764 mmHg 77%
    08:00 -1°C° 0 mm 4 mps 764 mmHg 79%
    09:00 0°C° 0 mm 3 mps 764 mmHg 80%
    10:00 +1°C° 0.1 mm 3 mps 764 mmHg 83%
    11:00 +1°C° 0.1 mm 3 mps 764 mmHg 85%
    12:00 +2°C° 0.1 mm 3 mps 764 mmHg 88%
    13:00 +2°C° 0.3 mm 3 mps 763 mmHg 89%
    14:00 +1°C° 0.3 mm 4 mps 763 mmHg 91%
    15:00 +1°C° 0.3 mm 4 mps 763 mmHg 92%
    16:00 0°C° 0.2 mm 4 mps 762 mmHg 92%
    17:00 0°C° 0.2 mm 4 mps 762 mmHg 93%
    18:00 0°C° 0.2 mm 4 mps 762 mmHg 93%
    19:00 0°C° 0 mm 5 mps 762 mmHg 92%
    20:00 0°C° 0 mm 5 mps 762 mmHg 92%
    21:00 -1°C° 0 mm 6 mps 762 mmHg 92%
    22:00 -1°C° 0 mm 6 mps 761 mmHg 91%
    23:00 -1°C° 0 mm 6 mps 761 mmHg 91%
    Show more